TimeCDT,TemperatureF,Dew PointF,Humidity,Sea Level PressureIn,VisibilityMPH,Wind Direction,Wind SpeedMPH,Gust SpeedMPH,PrecipitationIn,Events,Conditions,WindDirDegrees,DateUTC
12:15 AM,62.6,62.6,100,30.15,3.0,Calm,Calm,-,N/A,,Clear,0,2012-10-04 05:15:00
12:35 AM,62.6,62.6,100,30.15,3.0,Calm,Calm,-,N/A,,Clear,0,2012-10-04 05:35:00
12:55 AM,62.6,62.6,100,30.16,3.0,Calm,Calm,-,N/A,,Clear,0,2012-10-04 05:55:00
1:15 AM,62.6,62.6,100,30.16,4.0,Calm,Calm,-,N/A,,Clear,0,2012-10-04 06:15:00
1:35 AM,62.6,62.6,100,30.16,5.0,Calm,Calm,-,N/A,,Scattered Clouds,0,2012-10-04 06:35:00
1:55 AM,62.6,62.6,100,30.17,5.0,Calm,Calm,-,N/A,,Mostly Cloudy,0,2012-10-04 06:55:00
2:15 AM,64.4,62.6,94,30.17,3.0,Calm,Calm,-,N/A,,Scattered Clouds,0,2012-10-04 07:15:00
2:35 AM,62.6,62.6,100,30.17,3.0,Calm,Calm,-,N/A,,Clear,0,2012-10-04 07:35:00
2:55 AM,62.6,62.6,100,30.17,3.0,Calm,Calm,-,N/A,,Clear,0,2012-10-04 07:55:00
3:15 AM,62.6,62.6,100,30.17,2.0,Calm,Calm,-,N/A,,Clear,0,2012-10-04 08:15:00
3:35 AM,62.6,62.6,100,30.18,3.0,Calm,Calm,-,N/A,,Clear,0,2012-10-04 08:35:00
3:55 AM,62.6,62.6,100,30.18,3.0,Calm,Calm,-,N/A,,Clear,0,2012-10-04 08:55:00
4:15 AM,62.6,62.6,100,30.18,1.5,Calm,Calm,-,N/A,,Clear,0,2012-10-04 09:15:00
4:35 AM,62.6,62.6,100,30.19,1.5,Calm,Calm,-,N/A,,Clear,0,2012-10-04 09:35:00
4:55 AM,60.8,60.8,100,30.19,1.8,Calm,Calm,-,N/A,,Clear,0,2012-10-04 09:55:00
5:15 AM,60.8,60.8,100,30.20,1.0,Calm,Calm,-,N/A,,Clear,0,2012-10-04 10:15:00
5:35 AM,60.8,60.8,100,30.20,2.0,Calm,Calm,-,N/A,,Clear,0,2012-10-04 10:35:00
5:55 AM,60.8,60.8,100,30.21,1.5,Calm,Calm,-,N/A,,Clear,0,2012-10-04 10:55:00
6:15 AM,60.8,60.8,100,30.21,1.2,Calm,Calm,-,N/A,,Clear,0,2012-10-04 11:15:00
6:35 AM,60.8,60.8,100,30.22,3.0,Calm,Calm,-,N/A,,Clear,0,2012-10-04 11:35:00
6:55 AM,60.8,60.8,100,30.22,1.5,Calm,Calm,-,N/A,,Clear,0,2012-10-04 11:55:00
7:15 AM,59.0,59.0,100,30.22,1.2,Calm,Calm,-,N/A,,Clear,0,2012-10-04 12:15:00
7:35 AM,60.8,60.8,100,30.23,2.0,Calm,Calm,-,N/A,,Clear,0,2012-10-04 12:35:00
7:55 AM,60.8,60.8,100,30.24,1.8,Calm,Calm,-,N/A,,Clear,0,2012-10-04 12:55:00
8:15 AM,64.4,64.4,100,30.25,4.0,Calm,Calm,-,N/A,,Clear,0,2012-10-04 13:15:00
8:35 AM,66.2,64.4,94,30.25,5.0,Calm,Calm,-,N/A,,Clear,0,2012-10-04 13:35:00
8:55 AM,68.0,64.4,88,30.26,8.0,Calm,Calm,-,N/A,,Clear,0,2012-10-04 13:55:00
9:15 AM,69.8,64.4,83,30.26,9.0,SE,4.6,-,N/A,,Clear,130,2012-10-04 14:15:00
9:35 AM,71.6,66.2,83,30.26,8.0,Calm,Calm,-,N/A,,Clear,0,2012-10-04 14:35:00
9:55 AM,71.6,66.2,83,30.26,10.0,Calm,Calm,-,N/A,,Clear,0,2012-10-04 14:55:00
10:15 AM,73.4,68.0,83,30.26,9.0,ESE,4.6,-,N/A,,Clear,110,2012-10-04 15:15:00
10:35 AM,75.2,66.2,73,30.26,10.0,ESE,3.5,-,N/A,,Clear,120,2012-10-04 15:35:00
10:55 AM,75.2,66.2,73,30.26,9.0,Calm,Calm,-,N/A,,Clear,0,2012-10-04 15:55:00
11:15 AM,77.0,66.2,69,30.26,10.0,Calm,Calm,-,N/A,,Clear,0,2012-10-04 16:15:00
11:35 AM,78.8,66.2,65,30.26,9.0,ENE,4.6,-,N/A,,Clear,60,2012-10-04 16:35:00
11:55 AM,78.8,64.4,61,30.25,10.0,Calm,Calm,-,N/A,,Clear,0,2012-10-04 16:55:00
12:15 PM,78.8,64.4,61,30.25,9.0,Calm,Calm,-,N/A,,Clear,0,2012-10-04 17:15:00
12:35 PM,80.6,64.4,58,30.24,8.0,East,3.5,-,N/A,,Clear,100,2012-10-04 17:35:00
12:55 PM,80.6,64.4,58,30.23,9.0,Calm,Calm,-,N/A,,Clear,0,2012-10-04 17:55:00
1:15 PM,80.6,62.6,54,30.22,10.0,Calm,Calm,-,N/A,,Clear,0,2012-10-04 18:15:00
1:35 PM,80.6,62.6,54,30.22,9.0,Calm,Calm,-,N/A,,Scattered Clouds,0,2012-10-04 18:35:00
1:55 PM,80.6,62.6,54,30.21,10.0,Calm,Calm,-,N/A,,Partly Cloudy,0,2012-10-04 18:55:00
2:15 PM,80.6,62.6,54,30.20,9.0,Calm,Calm,-,N/A,,Partly Cloudy,0,2012-10-04 19:15:00
2:35 PM,82.4,60.8,48,30.20,10.0,Calm,Calm,-,N/A,,Scattered Clouds,0,2012-10-04 19:35:00
2:55 PM,82.4,62.6,51,30.19,10.0,South,5.8,-,N/A,,Partly Cloudy,170,2012-10-04 19:55:00
3:15 PM,82.4,62.6,51,30.19,10.0,ESE,3.5,-,N/A,,Light Drizzle,110,2012-10-04 20:15:00
3:35 PM,82.4,62.6,51,30.20,10.0,ESE,3.5,-,N/A,,Clear,120,2012-10-04 20:35:00
3:55 PM,82.4,60.8,48,30.19,10.0,Calm,Calm,-,N/A,,Clear,0,2012-10-04 20:55:00
4:15 PM,82.4,62.6,51,30.19,9.0,Calm,Calm,-,N/A,,Clear,0,2012-10-04 21:15:00
4:35 PM,82.4,62.6,51,30.19,10.0,Calm,Calm,-,N/A,,Clear,0,2012-10-04 21:35:00
4:55 PM,82.4,62.6,51,30.19,10.0,Calm,Calm,-,N/A,,Clear,0,2012-10-04 21:55:00
5:15 PM,82.4,64.4,54,30.18,10.0,Calm,Calm,-,N/A,,Clear,0,2012-10-04 22:15:00
5:35 PM,80.6,64.4,58,30.18,10.0,Calm,Calm,-,N/A,,Clear,0,2012-10-04 22:35:00
5:55 PM,78.8,66.2,65,30.18,10.0,Calm,Calm,-,N/A,,Clear,0,2012-10-04 22:55:00
6:15 PM,75.2,69.8,83,30.18,10.0,Calm,Calm,-,N/A,,Clear,0,2012-10-04 23:15:00
6:35 PM,73.4,69.8,88,30.18,9.0,Calm,Calm,-,N/A,,Clear,0,2012-10-04 23:35:00
6:55 PM,71.6,69.8,94,30.18,7.0,Calm,Calm,-,N/A,,Clear,0,2012-10-04 23:55:00
7:15 PM,69.8,68.0,94,30.18,8.0,Calm,Calm,-,N/A,,Clear,0,2012-10-05 00:15:00
7:35 PM,69.8,68.0,94,30.18,7.0,Calm,Calm,-,N/A,,Clear,0,2012-10-05 00:35:00
7:55 PM,68.0,66.2,94,30.19,5.0,Calm,Calm,-,N/A,,Clear,0,2012-10-05 00:55:00
8:15 PM,66.2,66.2,100,30.19,6.0,Calm,Calm,-,N/A,,Clear,0,2012-10-05 01:15:00
8:35 PM,66.2,66.2,100,30.19,5.0,Calm,Calm,-,N/A,,Clear,0,2012-10-05 01:35:00
8:55 PM,66.2,64.4,94,30.19,5.0,Calm,Calm,-,N/A,,Clear,0,2012-10-05 01:55:00
9:15 PM,64.4,64.4,100,30.19,5.0,Calm,Calm,-,N/A,,Clear,0,2012-10-05 02:15:00
9:35 PM,64.4,64.4,100,30.19,5.0,Calm,Calm,-,N/A,,Clear,0,2012-10-05 02:35:00
9:55 PM,64.4,64.4,100,30.20,5.0,Calm,Calm,-,N/A,,Clear,0,2012-10-05 02:55:00
10:15 PM,64.4,64.4,100,30.19,5.0,Calm,Calm,-,N/A,,Clear,0,2012-10-05 03:15:00
10:35 PM,62.6,62.6,100,30.19,4.0,Calm,Calm,-,N/A,,Clear,0,2012-10-05 03:35:00
10:55 PM,62.6,62.6,100,30.19,5.0,Calm,Calm,-,N/A,,Clear,0,2012-10-05 03:55:00
11:15 PM,62.6,62.6,100,30.19,5.0,Calm,Calm,-,N/A,,Clear,0,2012-10-05 04:15:00
11:35 PM,62.6,62.6,100,30.20,5.0,Calm,Calm,-,N/A,,Clear,0,2012-10-05 04:35:00
11:55 PM,62.6,62.6,100,30.19,5.0,Calm,Calm,-,N/A,,Clear,0,2012-10-05 04:55:00